Showing default

COSMOS 2337, 24725

Orbit data source: Space-Track

COSMOS 2337, 24725 is a payload satellite owned by VKS (CIS) in LEO that was launched on Fri, 14 Feb 1997 UTC via a TSIKLON-3 launch vehicle from the Plesetsk Missile And Space Complex (PKMTR). Payload-class satellites include a variety of spacecraft equipped with specific instruments for various scientific and technological missions. These include communications satellites like Starlink; space stations such as the ISS; scientific satellites like the Hubble; Earth observation satellites from companies like Planet Labs, Umbra, and HawkEye 360; GPS; miniature CubeSats for education and research; and military/defense satellites.

Loading next visibility...
Identifier
24725, 1997-006A
Orbit
LEO
Country
Flag of CISCIS
Related business
Manufacturer
NPO PM
Mission
Non-operational Defense Communications
Bus & Motor
STRELA-3, Unknown motor
Mass
225 kg wet, 225 kg dry
Launch date (UTC)
1997-02-14 (29 years ago)
Launch vehicle
TSIKLON-3
Launch site
Plesetsk Missile And Space Complex (PKMTR)
Object type
Payload
Rocket body
Debris
Shape & HBR
Cyl + 1 Ant, 3.5 m
Radar Cross Section
1.583 m², Medium (>0.1 m² and < 1m²)

Expand to show TLE details & history
Last TLE update: 23 hours ago

TLE from 23 hours ago
0 COSMOS 2337
1 24725U 97006A   25260.04497326  .00000036  00000-0  14444-3 0  9991
2 24725  82.6035  93.2526 0009505  25.9822 334.1743 12.60716884315434
Epoch: 2025-09-17T01:04Z
TLE epoch observation values (Epoch: 2025-09-17T01:04:45.689Z)
Latitude
-0.00009°
Longitude
80.83565°
Altitude
1,416.043 km
Speed
7.156 km/s
True Right ascension
06h 13m 00s
True Declination
0° 00' 00"
Sunlit
Object was in daylight at epoch
Visualization orbit readout
Latitude
Unknown
Longitude
Unknown
Altitude
Unknown
Speed
Unknown
Apparent Right ascension
Unknown
Apparent Declination
Unknown
Sunlit
N/A
Visualization observer readout
Local Sidereal Time
16:49:33
Azimuth
Unknown
Elevation
Unknown
Doppler factor
Unknown
Orbital elements
Apogee altitude
1,424.718 km
Perigee altitude
1,409.899 km
Semi-major axis
7,795.446 km
Eccentricity
0.00095
Inclination
82.6035°
RAAN
93.2526°
Arg. of periapsis
25.9822°
True anomaly
334.1268°
Mean anomaly
334.1743°
Eccentric anomaly
334.15056°
Mean motion
3.15342 °/min
Orbital period
114.16 mins
BSTAR
0.00014444
Loading maneuver chart data...
Computing Atmospheric mass density...
Loading historical data...
Loading historical data...
Loading historical data...
Loading historical data...
Loading historical data...
Loading historical data...
Loading historical data...

Documentation

Showing up to 5 results
|